This demonstration page uses our WeatherBlox Daily Observations layout. Learn more.

Left ArrowRight Arrow

38.20091, -84.87328

Hourly Observations for January 25, 2022

Temp ( °F °C ) Dew Point ( °F °C ) Humidity (%) Winds ( mph kmh ) Pressure ( in mb ) Visibility ( mi km ) Precip ( " mm )
12:15 am 00:15 Cloudy 41 5 35 1.7 79 79 VRB 6 9 29.89 1012 10 16 0.00 0.00
12:53 am 00:53 Cloudy 40 4.4 34 1.1 79 79 NW 12 19 29.87 1012 10 16 0.00 0.00
1:53 am 01:53 Cloudy 36 2.2 30 -1.1 79 79 NNW 12 19 29.90 1012 9 14 0.00 0.00
2:21 am 02:21 Cloudy 35 1.7 29 -1.7 78 78 NNW 14 22 29.93 1013 9 14 0.00 0.00
2:45 am 02:45 Cloudy 34 1.1 29 -1.7 82 82 N 10 17 29.95 1014 9 14 0.00 0.00
2:53 am 02:53 Cloudy 34 1.1 29 -1.7 82 82 NNW 13 20 29.92 1013 9 14 0.00 0.00
3:53 am 03:53 Cloudy 31 -0.6 26 -3.3 82 82 NNW 15 24 29.96 1015 9 14 0.00 0.00
4:53 am 04:53 Cloudy 30 -1.1 24 -4.4 79 79 NNW 10 17 30.00 1016 10 16 0.00 0.00
5:53 am 05:53 Cloudy 29 -1.7 22 -5.6 75 75 NNW 8 13 30.04 1017 10 16 0.00 0.00
6:53 am 06:53 Cloudy 28 -2.2 19 -7.2 69 69 NNW 7 11 30.07 1018 10 16 0.00 0.00
7:53 am 07:53 Cloudy 28 -2.2 19 -7.2 69 69 NNW 6 9 30.10 1019 10 16 0.00 0.00
8:53 am 08:53 Cloudy 28 -2.2 19 -7.2 69 69 NNW 5 7 30.13 1020 10 16 0.00 0.00
9:53 am 09:53 Cloudy 28 -2.2 19 -7.2 69 69 NNW 7 11 30.16 1021 10 16 0.00 0.00
10:53 am 10:53 Cloudy 28 -2.2 18 -7.8 66 66 N 6 9 30.19 1022 10 16 0.00 0.00
11:53 am 11:53 Cloudy 29 -1.7 17 -8.3 61 61 N 6 9 30.20 1023 10 16 0.00 0.00
12:53 pm 12:53 Cloudy 29 -1.7 17 -8.3 61 61 NW 7 11 30.19 1022 10 16 0.00 0.00
1:53 pm 13:53 Cloudy 30 -1.1 17 -8.3 58 58 NNW 8 13 30.19 1022 10 16 0.00 0.00
2:01 pm 14:01 Cloudy 31 -0.6 17 -8.3 56 56 VRB 3 6 30.21 1023 10 16 0.00 0.00
2:53 pm 14:53 Partly Cloudy 31 -0.6 16 -8.9 54 54 W 7 11 30.20 1023 10 16 0.00 0.00
3:53 pm 15:53 Mostly Sunny 31 -0.6 16 -8.9 54 54 NW 7 11 30.22 1023 10 16 0.00 0.00
4:53 pm 16:53 Sunny 31 -0.6 14 -10 49 49 NNW 10 17 30.24 1024 10 16 0.00 0.00
5:27 pm 17:27 Mostly Sunny 30 -1.1 14 -10 51 51 NW 7 11 30.28 1025 10 16 0.00 0.00
5:53 pm 17:53 Sunny 28 -2.2 14 -10 56 56 NW 5 7 30.26 1025 10 16 0.00 0.00
6:53 pm 18:53 Clear 27 -2.8 14 -10 58 58 NW 3 6 30.28 1025 10 16 0.00 0.00
7:53 pm 19:53 Clear 25 -3.9 13 -10.6 60 60 NW 5 7 30.29 1026 10 16 0.00 0.00
8:53 pm 20:53 Clear 24 -4.4 13 -10.6 62 62 NW 3 6 30.31 1027 10 16 0.00 0.00
9:53 pm 21:53 Clear 21 -6.1 13 -10.6 71 71 Calm 30.34 1027 10 16 0.00 0.00
10:53 pm 22:53 Clear 20 -6.7 12 -11.1 71 71 NNW 6 9 30.35 1028 10 16 0.00 0.00
11:53 pm 23:53 Clear 21 -6.1 10 -12.2 62 62 NNW 7 11 30.36 1028 10 16 0.00 0.00

Powered by AerisWeather